Regional Weather Roundup
Issued by NWS

Home | Current Version | Previous Version | Graphics & Text | Print | Product List | Glossary On
Versions: 1 2 3 4 5 6 7 8 9 10 11 12 13 14 15 16 17 18 19 20 21 22 23 24 25 26 27 28 29 30 31 32 33 34 35 36 37 38 39 40 41 42 43 44 45 46 47 48 49 50
235
ASUS45 KTFX 290310
RWRMT
MONTANA REGIONAL WEATHER ROUNDUP
NATIONAL WEATHER SERVICE GREAT FALLS MT
900 PM MDT WED SEP 28 2016

NOTE: "FAIR" INDICATES FEW OR NO CLOUDS BELOW 12000 FEET WITH NO
SIGNIFICANT WEATHER AND/OR OBSTRUCTIONS TO VISIBILITY.

MTZ001>007-043-290400-
WEST OF THE DIVIDE

CITY           SKY/WX    TMP DP  RH WIND       PRES   REMARKS
KALISPELL      CLEAR     58  44  60 NW6       30.01S
MISSOULA       CLEAR     63  46  54 CALM      30.02R
BUTTE          CLEAR     62  43  49 S12       30.20R
MULLAN PASS    PTCLDY    63  42  46 CALM      30.15S
ANACONDA         N/A     61  36  39 S3        30.15R
DEER LODGE       N/A     64  43  45 NW8       30.15R
EUREKA           N/A     59  43  55 CALM        N/A
HAMILTON         N/A     59  46  63 CALM      30.04R
LIBBY            N/A     61  52  72 SE5       30.00R
RONAN            N/A     53  44  71 CALM      30.07S
$$

MTZ008-052>055-290400-
SOUTHWEST MONTANA

CITY           SKY/WX    TMP DP  RH WIND       PRES   REMARKS
BOZEMAN        CLEAR     54  47  77 SE9       30.16R
DILLON         CLEAR     52  43  71 W7        30.16R
W YELLOWSTONE    N/A     48  39  71 S3        30.30R
ENNIS          CLEAR     52  43  71 S6        30.25R
THREE FORKS      N/A     55  55 100 CALM      30.14R
TWIN BRIDGES     N/A     63  43  48 N8        30.13
$$

MTZ009-010-012-014-046-048-049-054-290400-
EAST SLOPES AND CENTRAL MONTANA

CITY           SKY/WX    TMP DP  RH WIND       PRES   REMARKS
CUT BANK       CLEAR     53  42  66 E5        30.17S
GREAT FALLS    CLEAR     52  45  77 N3        30.16R
MALMSTROM AFB  CLEAR     58  48  69 N7        30.15R
HELENA         CLEAR     61  45  55 W9        30.13R
CHOTEAU          N/A     55  45  67 CALM      30.20R
CONRAD           N/A     47  45  93 NE1       30.18S
$$

MTZ011-013-016-021-045-047-050-051-290400-
NORTH CENTRAL MONTANA

CITY           SKY/WX    TMP DP  RH WIND       PRES   REMARKS
HAVRE          CLEAR     56  49  77 E12       30.14S
LEWISTOWN      CLEAR     57  47  69 E8        30.18R
N BAR RANCH      N/A     52  46  82 NW3       30.24S
CHINOOK          N/A     57  48  72 E5        30.15S
$$

MTZ017>020-022>027-061-062-290400-
NORTHEAST MONTANA

CITY           SKY/WX    TMP DP  RH WIND       PRES   REMARKS
GLASGOW        CLEAR     60  50  69 E12       30.17S
JORDAN           N/A     62  52  69 NE7       30.17S
SIDNEY         CLEAR     64  49  57 SE7       30.24R
WOLF POINT     CLEAR     59  52  77 E6        30.21R
PLENTYWOOD       N/A     61  45  55 SE12G17   30.25R
POPLAR           N/A     57  52  82 E6        30.22S
$$

MTZ028>42-056>058-290400-
SOUTHCENTRAL AND SOUTHEAST MONTANA

CITY           SKY/WX    TMP DP  RH WIND       PRES   REMARKS
BAKER          CLEAR     57  50  77 SE13      30.28R
BILLINGS       CLEAR     61  52  72 N7        30.17S
LIVINGSTON     CLEAR     51  45  79 CALM      30.21R
MILES CITY     CLEAR     63  54  72 NE8       30.19S
BIG TIMBER     MOCLDY    59  48  67 NE5       30.24S
FORSYTH          N/A     63  54  72 E6        30.16S
LAUREL           N/A     61  49  64 N3        30.14S
ROUNDUP          N/A     62  48  60 NE1       30.09S
$$

REGIONAL REPORTS...DAKOTAS

CITY           SKY/WX    TMP DP  RH WIND       PRES   REMARKS
WILLISTON      CLEAR     63  38  39 SE9       30.27R
MINOT          CLEAR     53  47  79 SE8       30.35R
DICKINSON      CLEAR     55  32  41 SE14      30.30R
BEACH            N/A     57  48  72 SE12      30.30S
CROSBY           N/A     57  37  47 SE12      30.30S
WATFORD CITY     N/A     55  41  58 SE9       30.29R
BISMARCK       CLEAR     49  46  90 E8        30.37R
GRAND FORKS    PTCLDY    47  44  90 N3        30.39R
FARGO          CLEAR     51  45  79 E8        30.39R
BUFFALO SD       N/A     63  42  46 SE20G25   30.24R
RAPID CITY     CLEAR     54  38  54 SE7       30.33R
$$

REGIONAL REPORTS...WYOMING/IDAHO/WASHINGTON

CITY           SKY/WX    TMP DP  RH WIND       PRES   REMARKS
GILLETTE       CLEAR     55  47  74 S7        30.28R
SHERIDAN       CLEAR     60  40  47 S6        30.21R
BUFFALO WY       N/A     62  37  39 SW5       30.30
CODY           CLEAR     60  45  57 CALM      30.24R
YELLOWSTONE LA   N/A     44  35  70 CALM      30.41R
IDAHO FALLS    CLEAR     61  48  62 CALM      30.16R
SALMON         CLEAR     63  39  42 CALM      30.06R
BOISE          CLEAR     77  33  20 SE9       29.92R
SPOKANE        PTCLDY    68  40  35 W5        29.96R
$$

REGIONAL REPORTS...ALBERTA

CITY           SKY/WX    TMP DP  RH WIND       PRES   REMARKS
EDMONTON       PTCLDY    50  28  43 SE10      30.23R
CALGARY        PTCLDY    48  39  71 SE12G18   30.19R
LETHBRIDGE     PTCLDY    52  41  66 E7        30.16S
MEDICINE HAT   PTCLDY    50  41  71 NE12      30.19F
WATERTON GATE    N/A     45  39  81 CALM        N/A
MILK RIVER       N/A     48  43  81 E3          N/A
$$

REGIONAL REPORTS...SASKATCHEWAN

CITY           SKY/WX    TMP DP  RH WIND       PRES   REMARKS
SWIFT CURRENT  MOCLDY    50  39  66 E15G21    30.23S
REGINA         PTCLDY    57  45  62 E10       30.27S
SASKATOON      LGT RAIN  48  45  87 NE8       30.34S
CYPRESS HILLS    N/A     52  39  62 E12G17      N/A
VAL MARIE        N/A     50  45  81 E6          N/A
ROCKGLEN         N/A     55  46  71 E6          N/A
ASSINIBOIA       N/A     50  34  53 SE8         N/A
$$




USA.gov is the U.S. government's official web portal to all federal, state and local government web resources and services.